This is the latest recevied weather packets stored in our database for station/object Krupka. If no packets are shown the sender has not sent any weather packets the latest 1 day(s).
| Time | Temp. | Humidity | Pressure | Rain* | Wind** | Luminosity | Snow |
|---|---|---|---|---|---|---|---|
| 1778020503 | 8.89° C | 86% | - | - | 3.13 m/s, 316° | - | - |
| 1778020216 | 8.89° C | 86% | - | - | 3.13 m/s, 298° | - | - |
| 1778019903 | 8.89° C | 87% | - | - | 3.13 m/s, 304° | - | - |
| 1778019606 | 8.89° C | 87% | - | - | 4.02 m/s, 296° | - | - |
| 1778019304 | 8.89° C | 87% | - | - | 4.92 m/s, 277° | - | - |
| 1778019003 | 8.89° C | 87% | - | - | 3.13 m/s, 284° | - | - |
| 1778018703 | 8.89° C | 87% | - | - | 4.02 m/s, 276° | - | - |
| 1778018403 | 8.89° C | 88% | - | - | 4.92 m/s, 268° | - | - |
| 1778018103 | 8.89° C | 87% | - | - | 4.02 m/s, 266° | - | - |
| 1778017808 | 8.89° C | 88% | - | - | 4.92 m/s, 283° | - | - |
| 1778017503 | 8.89° C | 88% | - | - | 8.05 m/s, 282° | - | - |
| 1778017203 | 8.89° C | 88% | - | - | 4.92 m/s, 293° | - | - |
| 1778016903 | 8.89° C | 88% | - | - | 5.81 m/s, 281° | - | - |
| 1778016603 | 8.89° C | 88% | - | - | 4.02 m/s, 279° | - | - |
| 1778016304 | 8.89° C | 89% | - | - | 7.15 m/s, 286° | - | - |
| 1778016004 | 8.89° C | 88% | - | - | 5.81 m/s, 274° | - | - |
| 1778015704 | 8.89° C | 88% | - | - | 3.13 m/s, 278° | - | - |
| 1778015403 | 8.89° C | 88% | - | - | 1.79 m/s, 283° | - | - |
| 1778015103 | 8.89° C | 88% | - | - | 5.81 m/s, 270° | - | - |
| 1778014803 | 8.89° C | 87% | - | - | 4.02 m/s, 283° | - | - |
| 1778014503 | 8.89° C | 86% | - | - | 4.92 m/s, 285° | - | - |
| 1778014202 | 10° C | 86% | - | - | 4.02 m/s, 294° | - | - |
| 1778013904 | 11.11° C | 85% | - | - | 5.81 m/s, 260° | - | - |
| 1778013603 | 12.22° C | 85% | - | - | 3.13 m/s, 262° | - | - |
| 1778013310 | 12.22° C | 86% | - | - | 3.13 m/s, 31° | - | - |
* Rain since midnight (hover to see other rain measurements)
** Current wind speed in m/s (hover to see current wind gust speed)